Temperature
25 23 23 24 24 24 24 24 24 24 25 24 23 22 22 22 22 22 22 22 22 22 22 22 22 22 22 21 21 21 21 21 20 20 20 20 19 19 19 19 18 18 18 18
23 23 24 25 25 24 24 24 24 24 24 24 23 22 22 22 22 22 22 22 22 22 22 22 22 22 22 21 21 21 21 21 20 20 20 20 19 19 19 19 18 18 18 18
24 25 25 25 25 25 24 24 24 24 24 23 23 22 22 22 22 22 23 23 22 22 22 22 22 22 22 22 22 21 21 21 20 20 20 20 19 19 19 19 19 18 18 18
24 25 26 25 25 25 24 25 25 25 23 22 23 22 22 21 21 21 22 22 22 23 23 23 23 22 22 22 22 21 21 21 20 20 20 20 20 19 19 19 18 18 18 18
24 25 26 25 26 25 25 25 24 24 23 22 22 22 22 21 21 22 22 22 23 23 23 23 23 23 22 22 22 22 21 21 20 20 20 20 20 19 19 19 18 18 18 18
24 25 26 26 26 26 25 24 22 20 20 22 22 22 22 20 21 22 22 23 23 23 23 23 23 23 22 22 22 21 21 21 20 20 20 20 19 19 19 19 18 18 18 18
25 25 25 26 26 25 24 22 22 22 20 21 21 21 21 22 22 22 22 23 23 23 23 23 22 22 22 22 22 21 21 21 20 20 20 19 19 19 19 19 18 18 18 18
23 23 25 25 25 24 23 22 22 22 22 21 21 21 21 22 22 23 23 23 23 23 23 22 22 22 22 22 22 21 21 21 20 20 20 19 19 19 19 18 18 18 18 18
22 23 25 25 25 24 23 21 21 20 21 21 21 21 21 22 21 21 22 22 22 23 23 22 22 22 22 22 21 21 21 20 20 20 19 19 19 19 18 18 18 18 18 18
22 23 24 24 24 23 23 20 18 19 20 21 22 21 21 22 21 21 20 21 23 23 23 22 22 22 22 21 21 21 21 20 20 19 19 19 19 19 18 18 18 18 18 18
22 23 23 23 24 23 22 21 18 17 19 20 21 21 22 21 21 21 20 22 22 23 23 22 22 21 21 21 21 21 20 20 20 19 19 19 19 19 18 18 18 18 17 17
20 20 21 22 23 23 23 21 19 21 20 18 19 21 22 21 20 20 21 21 22 23 23 22 21 21 21 21 20 20 20 20 19 19 19 19 18 18 18 18 17 17 17 17
20 19 21 22 22 22 22 21 19 18 17 17 19 21 21 20 20 20 20 21 22 22 22 22 21 21 21 20 20 20 20 20 19 19 19 18 18 18 18 18 17 17 17 17
20 18 20 22 21 21 22 21 19 19 18 18 19 20 20 19 19 19 20 21 21 21 21 21 21 21 21 21 20 20 20 19 19 19 19 18 18 18 18 17 17 17 17 16
19 20 20 20 21 22 22 22 20 20 19 19 20 19 20 19 19 19 20 20 20 20 20 20 20 20 20 20 20 20 20 19 19 19 19 19 18 18 17 17 17 17 16 16
17 19 20 21 21 21 21 21 21 20 20 20 20 19 18 18 19 19 19 19 20 20 20 20 20 20 20 20 20 20 19 19 19 19 19 18 18 17 17 17 17 16 16 16
16 18 19 19 20 21 20 20 20 20 19 19 19 19 18 18 18 18 19 19 19 20 20 20 20 20 20 20 19 19 19 19 18 18 18 18 17 17 17 16 16 16 16 16
16 16 15 17 20 21 20 20 20 19 19 18 18 18 18 18 18 19 20 20 20 20 20 20 20 20 20 19 19 19 18 18 18 18 17 17 17 17 16 16 16 16 15 15
14 15 15 15 18 19 19 19 19 19 19 18 18 17 18 18 18 18 19 19 20 20 20 20 20 19 19 19 18 18 18 18 17 17 17 17 16 16 16 16 16 15 15 15
13 14 15 15 18 18 19 19 19 19 18 18 17 17 17 17 17 17 19 19 19 19 19 19 19 19 19 18 18 18 18 17 17 17 17 16 16 16 16 15 15 15 15 14
16 15 15 15 17 17 18 18 19 19 18 18 18 18 17 17 17 18 19 19 19 19 19 19 19 18 18 18 18 18 17 17 17 17 16 16 16 16 15 15 15 14 14 14
15 15 15 14 16 17 17 17 17 17 18 18 18 18 18 18 18 18 18 18 18 18 18 18 18 18 18 18 17 17 17 17 16 16 16 16 15 15 15 14 14 14 14 13
14 14 13 14 15 16 16 17 18 18 18 18 18 18 18 17 17 17 18 18 18 18 18 18 17 17 17 17 17 17 16 16 16 16 15 15 15 15 14 14 14 13 13 13
14 13 13 14 14 15 16 17 18 18 18 18 18 18 18 17 17 17 17 17 17 17 17 17 17 17 17 16 16 16 16 16 15 15 15 15 14 14 14 13 13 13 13 13
13 13 13 13 14 15 16 17 17 18 18 18 18 18 17 17 17 17 17 17 17 17 17 16 16 16 16 15 15 16 15 15 15 15 15 14 14 14 13 13 13 13 13 13
12 12 13 14 14 14 15 17 17 17 17 17 17 17 17 17 17 17 16 16 16 16 16 16 16 15 15 15 15 15 15 15 14 14 14 14 13 13 13 13 13 13 12 12
Wind_Speed
2 3 3 7 7 5 3 3 3 5 2 3 3 3 3 4 5 7 7 8 9 9 7 5 6 6 6 5 6 6 6 4 4 2 2 2 1 0 1 1 1 2 2 2
4 4 8 4 3 3 3 2 2 3 1 3 1 3 3 4 7 7 9 10 10 8 5 6 6 7 7 7 7 6 6 5 4 3 2 2 2 1 1 0 1 1 2 2
6 7 2 2 1 1 2 4 4 2 2 3 3 4 3 3 4 5 6 7 8 10 9 8 8 8 8 8 8 8 7 5 4 3 3 3 3 2 1 1 1 1 1 1
5 5 2 1 3 3 4 5 5 3 3 1 1 3 6 4 4 6 7 7 8 9 10 9 9 8 8 8 7 7 6 6 5 5 4 4 3 2 2 1 0 1 1 1
5 3 3 4 6 5 5 1 3 2 4 2 2 1 7 2 5 8 9 8 9 9 10 10 10 9 8 7 8 8 7 6 5 5 6 5 3 2 1 1 1 1 1 1
6 4 5 6 3 4 3 6 6 6 5 1 2 3 6 4 6 6 6 7 8 8 8 8 7 7 6 6 6 7 8 6 6 6 5 5 5 4 3 2 1 0 0 1
5 5 3 2 1 2 5 6 4 4 4 5 2 2 7 7 6 6 6 6 6 7 7 7 7 8 7 8 8 7 8 7 6 6 5 5 5 5 5 3 2 2 0 1
3 6 4 2 5 5 4 8 7 5 5 5 1 4 7 6 5 3 4 4 4 5 6 7 8 8 8 8 8 8 8 7 6 6 5 4 4 4 3 3 3 3 2 2
7 7 4 2 2 7 6 4 6 7 3 1 4 6 7 3 4 3 2 1 3 5 5 6 6 7 7 7 8 9 8 7 6 6 6 5 5 4 3 3 2 2 2 2
8 5 5 3 4 4 5 8 6 6 5 3 4 4 5 6 5 4 2 2 2 2 4 5 6 7 7 6 6 6 7 7 6 5 5 5 4 4 4 3 3 2 2 1
6 5 4 3 2 3 3 5 6 5 5 6 3 6 5 7 5 4 4 2 2 3 5 5 6 6 6 6 6 6 6 6 5 6 5 4 4 4 4 3 3 3 2 2
4 5 2 5 4 3 4 6 7 5 4 4 4 6 4 3 3 3 3 2 1 2 3 5 5 6 6 6 6 5 6 6 6 5 5 4 4 3 3 4 4 3 3 3
5 6 2 5 5 2 2 2 4 6 5 5 4 6 4 3 2 2 2 2 1 1 3 4 5 5 6 6 5 5 5 5 5 5 5 4 3 4 4 4 4 3 3 3
6 5 6 8 7 4 2 1 4 6 5 5 7 7 6 4 3 3 2 1 1 1 2 3 3 4 5 5 5 5 4 5 5 5 5 5 5 5 4 3 3 3 3 3
5 4 3 4 3 3 2 2 3 4 6 7 7 7 7 5 3 2 1 1 2 1 2 2 3 3 3 3 3 4 4 4 5 5 5 5 5 4 3 3 2 2 2 3
4 3 2 1 1 2 1 0 2 2 2 3 2 4 4 3 1 1 1 1 2 2 2 2 3 3 3 4 4 4 4 4 5 5 5 4 3 3 3 3 2 2 2 1
2 5 3 2 2 3 1 3 3 2 1 4 4 5 2 1 1 2 2 2 3 2 2 3 3 3 3 3 4 4 4 3 4 4 4 3 3 3 3 2 2 2 2 2
5 5 4 2 2 3 6 2 3 4 1 2 3 3 2 2 2 1 1 2 2 2 2 2 2 2 1 2 2 2 3 3 3 2 2 2 3 3 3 3 2 2 2 2
4 7 5 4 3 3 4 2 2 3 2 1 2 1 0 1 2 2 1 0 2 2 2 2 2 2 2 2 2 3 3 3 3 3 3 3 4 4 4 3 3 3 2 2
5 5 6 4 4 6 6 3 1 4 2 2 2 2 1 3 1 4 3 0 1 1 1 2 2 3 3 2 3 4 3 2 3 3 4 3 4 4 4 4 3 3 3 3
3 4 4 4 4 6 5 4 2 4 5 3 3 3 2 3 4 3 1 1 1 1 1 2 3 2 2 2 3 3 2 2 2 1 1 1 2 3 3 2 2 2 2 2
3 3 3 4 3 6 3 2 4 5 2 0 1 1 1 1 1 0 0 1 1 1 2 3 3 3 2 2 3 2 1 1 0 1 2 1 1 1 1 2 1 1 1 1
3 5 5 6 6 4 2 2 2 3 2 1 1 1 1 1 1 1 0 1 1 1 2 2 4 3 1 1 3 3 1 0 2 2 1 1 0 0 1 2 2 1 1 2
2 1 2 1 3 3 2 1 1 2 2 1 1 1 2 1 1 0 0 0 1 1 2 2 4 3 1 0 1 1 1 1 2 2 1 1 1 1 1 1 2 3 3 3
3 1 1 2 3 2 3 2 2 1 2 2 2 1 1 2 1 1 1 1 1 1 1 2 3 2 2 1 0 0 1 2 2 1 1 1 1 2 2 2 3 4 4 5
3 5 5 5 5 4 4 3 1 1 1 1 1 2 1 1 2 1 1 1 1 1 1 2 2 1 1 1 1 1 1 2 2 1 1 1 1 1 1 1 2 2 2 4
Wind_Direction
87 82 227 226 204 202 191 187 248 257 223 143 207 237 233 194 189 198 196 197 209 217 216 197 192 183 172 171 174 176 173 173 158 151 152 150 173 174 80 98 158 167 159 146
43 267 243 227 192 167 173 194 257 299 86 137 167 288 262 212 215 209 205 209 214 213 201 197 192 186 183 185 185 181 181 174 174 175 160 147 143 139 142 59 79 150 156 152
199 244 225 163 221 208 244 199 216 215 30 56 78 328 283 256 236 236 222 212 214 208 203 204 200 195 186 190 189 189 182 171 170 154 121 103 86 62 42 29 20 358 143 129
232 256 184 206 246 178 265 234 199 172 115 308 100 277 287 270 264 248 242 222 215 211 205 203 201 198 194 195 186 176 169 161 161 151 148 151 158 177 213 208 231 6 40 77
241 217 194 229 231 180 226 141 130 132 130 72 24 172 286 313 266 256 245 231 219 211 205 203 201 197 194 184 174 168 155 152 156 157 162 160 165 179 150 108 85 42 21 27
242 239 205 215 223 176 154 71 60 53 73 17 256 179 281 250 236 257 250 236 223 211 205 199 190 178 177 172 164 157 149 151 158 160 164 166 166 160 141 137 150 172 342 355
306 299 260 184 123 53 96 91 36 2 11 257 252 190 253 258 248 239 242 237 220 203 194 186 178 178 179 176 170 159 154 158 161 161 170 174 176 170 169 173 178 178 206 269
216 282 260 203 182 182 169 145 159 196 220 268 301 229 258 275 284 271 248 236 214 200 191 186 182 181 182 179 168 162 163 164 164 167 175 174 171 175 178 178 180 188 208 226
186 248 283 242 181 144 140 158 160 137 146 247 280 287 304 312 326 328 329 261 217 204 188 175 166 169 173 174 172 169 169 172 176 179 174 169 170 172 177 176 176 192 211 217
166 225 284 290 73 46 131 139 104 122 149 233 284 280 266 279 284 294 292 268 250 198 177 166 165 166 168 168 164 158 164 173 174 177 184 182 176 173 173 166 178 194 206 216
146 171 294 21 144 187 103 99 105 116 148 162 231 268 238 233 240 250 264 275 258 186 178 171 165 161 155 151 154 155 159 165 175 179 177 173 174 169 171 185 198 200 207 205
145 135 228 262 265 202 158 160 147 154 200 172 179 259 286 234 242 234 255 279 278 175 163 156 154 150 150 158 158 160 159 166 180 180 172 177 175 169 183 202 209 205 210 216
135 119 102 334 337 9 100 140 144 128 122 150 172 257 320 354 346 286 251 277 327 107 129 134 139 153 158 163 160 164 169 170 162 160 164 171 181 189 200 209 212 210 214 225
120 112 161 196 218 206 191 159 145 130 147 185 214 242 293 319 311 304 298 301 32 85 116 120 133 155 162 164 165 171 178 172 159 155 164 181 201 208 209 207 209 217 222 226
99 133 190 220 216 166 171 168 159 170 180 182 219 224 257 270 260 274 278 124 107 87 107 130 145 151 155 160 170 176 179 174 168 168 178 191 199 198 194 195 208 213 221 233
71 127 120 356 33 131 96 51 161 186 175 193 207 248 271 291 27 0 316 162 155 161 169 162 161 162 167 179 185 180 182 183 174 176 191 194 184 187 195 194 198 210 223 236
98 121 115 233 307 65 291 256 192 177 195 174 209 240 261 354 308 256 241 203 197 196 187 180 187 194 185 189 192 195 191 175 175 184 191 190 187 190 205 202 196 221 231 236
145 124 130 142 91 212 239 249 153 147 180 202 213 234 203 209 249 280 229 204 218 209 211 200 182 190 184 170 168 166 152 158 173 189 198 191 186 195 199 191 197 234 241 236
154 136 121 127 165 264 287 266 178 172 248 245 184 229 274 68 54 348 310 237 232 210 188 184 167 150 132 130 137 131 133 155 175 199 211 209 198 197 196 198 203 216 222 242
66 93 115 127 155 220 242 272 248 129 262 260 184 193 170 83 50 279 300 20 60 73 105 116 101 93 97 110 120 120 141 167 201 218 218 211 198 193 196 206 211 219 215 232
49 59 113 149 191 249 261 286 101 152 245 253 213 223 206 204 216 239 284 35 112 114 118 115 107 98 109 120 119 124 141 211 241 229 178 178 188 193 198 207 220 212 206 217
175 150 169 147 174 244 289 99 154 210 255 172 199 222 202 255 320 32 134 102 105 97 102 113 108 90 74 114 126 128 189 242 103 106 111 131 213 217 185 178 208 191 181 205
192 189 183 186 208 243 275 202 208 160 145 166 146 0 114 53 339 331 340 99 89 102 125 126 122 107 79 104 133 144 233 117 110 113 130 167 209 243 192 190 194 194 207 218
279 126 136 243 264 275 291 303 51 144 146 148 133 127 118 136 174 221 346 70 104 106 123 123 119 122 138 273 162 179 189 140 125 135 168 185 190 234 262 231 212 209 215 224
246 172 154 248 270 321 321 326 337 45 58 53 33 34 148 139 151 167 196 228 203 174 134 127 137 157 185 196 246 261 174 141 138 162 190 207 220 228 244 254 243 232 227 220
221 194 183 220 222 196 246 275 304 62 22 52 33 351 347 146 168 172 198 220 188 170 147 143 156 174 202 183 226 260 216 168 162 194 226 237 244 242 240 252 303 304 263 246
Height
1494 1499 1504 1500 1498 1500 1503 1508 1510 1504 1497 1501 1504 1504 1501 1500 1501 1502 1502 1504 1505 1506 1508 1510 1512 1513 1515 1517 1519 1520 1522 1523 1525 1526 1526 1527 1528 1529 1529 1530 1531 1531 1531 1531
1499 1501 1493 1492 1493 1497 1501 1507 1508 1502 1497 1501 1505 1505 1500 1500 1499 1499 1500 1501 1502 1504 1506 1508 1510 1511 1513 1515 1517 1519 1521 1522 1524 1525 1526 1527 1528 1529 1529 1530 1530 1530 1531 1531
1498 1494 1488 1491 1495 1499 1501 1504 1504 1505 1501 1501 1505 1509 1503 1498 1498 1498 1498 1498 1500 1502 1503 1505 1507 1509 1511 1513 1515 1517 1519 1521 1523 1524 1526 1527 1527 1528 1528 1529 1529 1530 1530 1530
1493 1488 1489 1492 1494 1496 1504 1495 1496 1500 1509 1517 1511 1526 1507 1501 1498 1496 1496 1496 1496 1498 1500 1502 1504 1506 1508 1511 1513 1515 1517 1519 1521 1523 1525 1525 1526 1526 1527 1528 1529 1529 1530 1530
1492 1487 1489 1492 1490 1490 1494 1491 1495 1500 1509 1518 1516 1524 1514 1503 1501 1495 1492 1492 1492 1494 1496 1498 1501 1503 1506 1508 1510 1512 1515 1518 1520 1521 1523 1524 1525 1526 1526 1527 1528 1528 1528 1529
1486 1483 1484 1484 1483 1485 1488 1495 1501 1509 1517 1529 1521 1525 1520 1507 1498 1492 1489 1489 1489 1491 1493 1495 1498 1501 1503 1506 1508 1510 1513 1515 1518 1520 1521 1523 1523 1524 1525 1525 1526 1526 1527 1527
1491 1484 1481 1480 1485 1487 1491 1508 1527 1529 1537 1534 1519 1522 1516 1495 1490 1488 1487 1486 1486 1488 1490 1492 1495 1497 1500 1503 1505 1508 1511 1513 1516 1518 1520 1521 1522 1523 1523 1524 1525 1525 1525 1526
1502 1501 1483 1479 1483 1490 1494 1503 1526 1537 1539 1532 1520 1522 1505 1490 1487 1485 1485 1484 1484 1485 1487 1490 1492 1495 1498 1500 1503 1506 1509 1511 1513 1516 1517 1519 1520 1521 1522 1522 1523 1523 1524 1524
1500 1499 1480 1477 1477 1483 1494 1503 1503 1521 1527 1532 1526 1514 1499 1488 1485 1484 1483 1482 1482 1484 1486 1488 1491 1493 1496 1499 1501 1504 1507 1509 1511 1513 1515 1516 1517 1519 1520 1521 1522 1522 1522 1523
1486 1495 1483 1478 1478 1482 1486 1496 1511 1522 1534 1537 1526 1519 1512 1494 1489 1485 1483 1482 1482 1483 1485 1487 1489 1492 1494 1497 1500 1503 1505 1507 1509 1511 1513 1514 1515 1516 1518 1519 1519 1520 1520 1520
1481 1492 1490 1484 1487 1490 1492 1499 1508 1520 1522 1533 1536 1522 1493 1489 1486 1484 1483 1482 1482 1482 1484 1486 1488 1491 1493 1496 1498 1500 1502 1505 1507 1509 1510 1511 1512 1514 1515 1516 1517 1517 1517 1517
1481 1491 1499 1491 1482 1480 1484 1491 1502 1513 1520 1526 1528 1517 1484 1484 1482 1482 1482 1482 1482 1482 1483 1485 1487 1489 1491 1494 1496 1498 1500 1502 1504 1506 1508 1509 1510 1512 1513 1513 1514 1514 1514 1514
1479 1492 1505 1502 1496 1487 1487 1490 1495 1503 1516 1526 1526 1511 1484 1482 1482 1481 1481 1481 1482 1482 1483 1484 1486 1489 1490 1492 1495 1497 1499 1500 1502 1504 1506 1508 1508 1509 1510 1511 1511 1512 1512 1512
1474 1489 1498 1505 1499 1490 1489 1489 1493 1500 1513 1519 1514 1502 1489 1485 1483 1481 1481 1481 1482 1482 1483 1484 1485 1487 1489 1491 1493 1495 1498 1499 1500 1502 1503 1505 1507 1507 1508 1508 1508 1509 1509 1509
1474 1488 1487 1487 1483 1484 1486 1487 1490 1493 1497 1504 1499 1498 1489 1484 1483 1482 1482 1482 1482 1482 1483 1484 1485 1487 1489 1491 1493 1494 1496 1497 1498 1500 1501 1502 1504 1505 1505 1505 1505 1506 1506 1506
1478 1486 1487 1488 1484 1485 1487 1486 1487 1489 1490 1492 1492 1492 1484 1483 1483 1483 1482 1482 1482 1482 1483 1484 1485 1487 1488 1490 1491 1493 1494 1495 1496 1497 1498 1500 1501 1502 1502 1502 1502 1503 1503 1503
1483 1487 1494 1497 1489 1486 1496 1489 1487 1488 1488 1489 1492 1488 1483 1483 1482 1482 1481 1481 1481 1482 1482 1483 1484 1485 1487 1489 1490 1492 1493 1494 1495 1495 1496 1498 1499 1499 1500 1500 1500 1500 1500 1500
1483 1489 1498 1501 1495 1505 1494 1481 1481 1485 1486 1485 1484 1483 1482 1482 1481 1481 1481 1481 1480 1481 1482 1483 1484 1486 1486 1488 1490 1491 1492 1493 1493 1494 1495 1495 1496 1497 1497 1497 1497 1498 1497 1497
1478 1486 1498 1505 1506 1500 1489 1481 1482 1485 1486 1483 1483 1482 1481 1481 1480 1480 1480 1480 1480 1480 1481 1483 1484 1485 1486 1487 1489 1489 1490 1491 1492 1492 1493 1493 1494 1494 1495 1494 1495 1495 1495 1495
1480 1483 1494 1503 1503 1505 1489 1478 1477 1482 1488 1481 1481 1481 1481 1480 1485 1482 1479 1479 1479 1480 1481 1482 1483 1484 1485 1486 1487 1487 1487 1489 1489 1490 1491 1492 1492 1492 1492 1493 1493 1493 1493 1492
1487 1491 1495 1499 1500 1493 1481 1477 1477 1491 1489 1480 1479 1479 1480 1480 1480 1479 1478 1478 1478 1479 1480 1481 1482 1482 1484 1485 1485 1486 1486 1487 1488 1488 1488 1489 1490 1490 1490 1490 1490 1490 1490 1490
1488 1492 1496 1499 1500 1495 1477 1477 1481 1482 1478 1478 1478 1478 1478 1478 1478 1477 1478 1478 1478 1479 1479 1479 1480 1481 1483 1483 1484 1484 1485 1485 1486 1486 1486 1487 1488 1488 1488 1488 1488 1488 1487 1487
1485 1485 1487 1489 1488 1479 1476 1476 1477 1477 1477 1477 1477 1478 1477 1478 1477 1477 1477 1478 1478 1478 1478 1479 1479 1480 1481 1482 1483 1482 1483 1484 1484 1484 1485 1485 1486 1486 1486 1485 1485 1485 1484 1484
1481 1480 1483 1483 1479 1476 1475 1475 1475 1475 1476 1476 1477 1477 1477 1476 1477 1477 1477 1477 1477 1477 1477 1477 1478 1479 1480 1481 1481 1482 1482 1482 1483 1483 1483 1483 1484 1483 1483 1483 1483 1482 1482 1481
1480 1480 1481 1481 1477 1475 1474 1474 1474 1474 1474 1475 1475 1476 1477 1476 1476 1477 1477 1477 1477 1477 1477 1477 1477 1478 1479 1479 1480 1480 1481 1481 1481 1481 1481 1481 1481 1481 1480 1480 1480 1479 1479 1478
1477 1478 1479 1478 1474 1475 1474 1474 1474 1474 1474 1474 1475 1475 1476 1476 1476 1476 1476 1476 1476 1476 1476 1476 1477 1477 1478 1478 1478 1479 1479 1479 1479 1478 1478 1478 1478 1477 1476 1477 1476 1476 1476 1475